Weather Roundup
Issued by NWS

Home | Current Version | Previous Version | Text Only | Print | Product List | Glossary On
Versions: 1 2 3 4 5 6 7 8 9 10 11 12 13 14 15 16 17 18 19 20 21 22 23 24 25 26 27 28 29 30 31 32 33 34 35 36 37 38 39 40 41 42 43 44 45 46 47 48 49 50
000
NZUS93 KARX 070559
HRRWXR

CURRENT HOURLY OBSERVATIONS ACROSS
MUCH OF THE UPPER MISSISSIPPI VALLEY
NATIONAL WEATHER SERVICE LA CROSSE WI
100 AM CDT THU MAY 07 2015


...SOUTHEAST MINNESOTA...


CITY           SKY/WX    TMP DP  RH WIND       PRES   REMARKS
ROCHESTER      CLEAR     63  57  81 S13       29.91F
ROCHESTER/MAYO FAIR      64  58  81 SE9       29.90F
WINONA         PTCLDY    61  57  88 SE5       29.93F
AUSTIN         PTCLDY    63  57  82 SE9       29.87F
ALBERT LEA     PTCLDY    64  57  77 SE14G21   29.85F
DODGE CENTER   PTCLDY    63  57  82 SE12      29.89F
PRESTON        PTCLDY    62  56  81 SE10      29.92F
OWATONNA       CLEAR     64  57  77 SE13      29.86F
FARIBAULT      CLEAR     64  59  82 SE13G18   29.86F
$$

...ELSEWHERE IN MINNESOTA...


CITY           SKY/WX    TMP DP  RH WIND       PRES   REMARKS
MINNEAPOLIS    PTCLDY    65  58  78 SE12      29.86F
INTNL FALLS    MOCLDY    57  54  89 SE8       29.82F
DULUTH         MOCLDY    52  45  77 E10       29.90F
RED WING       MOCLDY    64  59  82 SE8       29.89S
REDWOOD FALLS  CLOUDY    66  58  75 SE20      29.75F
MANKATO        PTCLDY    64  57  77 SE16      29.82F
WORTHINGTON    CLOUDY    63  55  77 SE20G26   29.73F
FAIRMONT       MOCLDY    64  36  34 SE22G29   29.78S
$$

...SOUTHWEST WISCONSIN...


CITY           SKY/WX    TMP DP  RH WIND       PRES   REMARKS
LA CROSSE      MOCLDY    67  59  75 SE5       29.94F
PRAIRIE DU CHI CLOUDY    66  57  72 SE7       29.96F
BOSCOBEL       CLOUDY    65  59  81 CALM      29.99S
LONE ROCK      NOT AVBL
PLATTEVILLE    CLOUDY    65  60  85 E9        30.00S
FORT MC COY    CLOUDY    64  59  81 CALM      29.99S
VIROQUA        CLOUDY    64  58  80 SE8       29.99F
WIS DELLS      MOCLDY    62  57  84 SE5       30.02S HAZE
$$

...ELSEWHERE IN WISCONSIN...


CITY           SKY/WX    TMP DP  RH WIND       PRES   REMARKS
MILWAUKEE      FOG       46  46 100 CALM      30.08F VSB 1
MADISON        CLEAR     61  56  83 SE7       30.03F HAZE
GREEN BAY      PTCLDY    51  49  92 E3        30.07F FOG
EAU CLAIRE     NOT AVBL
BLACK RVR FLS  CLOUDY    63  63 100 CALM      29.97F
MEDFORD        MOCLDY    60  57  90 SE6       30.02S
WAUSAU         PTCLDY    59  56  89 E6        30.02F
WIS RAPIDS     PTCLDY    63  56  78 SE8       30.03F
MARSHFIELD     CLOUDY    62  57  83 SE7       30.01F
RICE LAKE      CLOUDY    62  58  87 SE12      29.95S
$$

...NORTHEAST IOWA...


CITY           SKY/WX    TMP DP  RH WIND       PRES   REMARKS
DECORAH        CLOUDY    63  59  88 SE9G17    29.93F
MASON CITY     PTCLDY    63  59  87 SE16      29.87F
CHARLES CITY   MOCLDY    63  63 100 SE13      29.91F
OELWEIN        CLOUDY    64  59  82 SE15G21   29.94F
$$

...ELSEWHERE IN IOWA...


CITY           SKY/WX    TMP DP  RH WIND       PRES   REMARKS
DES MOINES     MOCLDY    70  57  63 S15G26    29.86S
IOWA CITY      NOT AVBL
FORT DODGE     CLOUDY    66  55  68 SE13G23   29.81F
$$

...NORTHERN ILLINOIS...


CITY           SKY/WX    TMP DP  RH WIND       PRES   REMARKS
CHICAGO-OHARE  PTCLDY    54  50  86 CALM      30.07R
CHICAGO-MIDWAY CLEAR     58  52  80 SE3       30.07S
MOLINE         MOCLDY    67  56  67 SE9       29.98F
ROCKFORD       PTCLDY    62  56  80 SE3       30.05F HAZE
PEORIA         CLEAR     72  54  53 S8        30.04R
$$

NOTE: "FAIR" INDICATES FEW OR NO CLOUDS BELOW 12,000 FEET WITH NO
SIGNIFICANT WEATHER AND/OR OBSTRUCTIONS TO VISIBILITY. WIND
SPEEDS ARE IN MILES-PER-HOUR.



USA.gov is the U.S. government's official web portal to all federal, state and local government web resources and services.